Farquhar Airport

Jump to: basic info | weather | runways | comments

Related pages: nearby airports | nearby navaids | notams | map

Basic information (top)

Codes: FSFA
Location: lon -10.109600, lat 51.176102, elev 10 ft / 3 m msl
Status: small_airport

Weather (top)

Current conditions for Prince Said Ibrahim International Airport 474nm (878km) W (rec'd 2014/12/23 04:00Z):

FMCH 230400Z 07003KT 9999 FEW020 27/23 Q1012 NOSIG

Airport forecast for Prince Said Ibrahim International Airport 474nm (878km) W (rec'd 2014/12/22 18:00Z):

TAF FMCH 221700Z 2218/2324 04004KT 9999 FEW020TCU SCT030 
      BECMG 2304/2306 33012KT 
      TEMPO 2308/2312 4000 SHRA FEW023CB BKN025 
      BECMG 2314/2316 06004KT

Runways (top)

13/31: 3,035 x 75 ft (925 x 23 m) — paved — not lighted

Latest comments (top)

No comments yet for Farquhar Airport

More... (top)

See also NOTAMs and nearby airports and navaids, or visit the Farquhar Airport page at the main OurAirports website..